Flag Weather past 2 weeks in Bordeaux, France

Now
48 °F

Light fog.


Feels Like: 46 °F
Forecast: 50 / 65 °F
Wind: 5 mph from East

Location: Bordeaux / Merignac

Current Time: Nov 27, 2014 at 7:00:52 AM

Latest Report: Nov 27, 2014 at 6:30 AM


Visibility: 2 mi

Pressure: 29.68 "Hg

Humidity: 94%

Dew point: 46 °F

Location of BordeauxLocation

Historic Weather in Bordeaux — Graph

°F

Bordeaux temperature yesterday

Maximum temperature yesterday: 57 °F (at 1:30 PM)
Minimum temperature yesterday: 46 °F (at 7:00 AM)
Average temperature yesterday: 53 °F

Past Weeks' High & Low Weather Summary

 TemperatureHumidityPressure
High68 °F (Nov 21, 2:30 PM)100% (Nov 14, 10:30 PM)30.09 "Hg (Nov 14, 10:30 PM)
Low45 °F (Nov 19, 3:30 AM)59% (Nov 13, 12:30 PM)29.56 "Hg (Nov 14, 12:30 AM)
Average55 °F87%29.84 "Hg
* Reported Nov 12 6:00 AM — Nov 27 6:00 AM, Bordeaux, Weather by CustomWeather, © 2014

Note: Actual official high and low records may vary slightly from our data, if they occured in-between our weather recording intervals... More about our weather records

Advertising

Bordeaux weather history for previous 24 hours

 ConditionsComfort  
Time TempWeatherWind HumidityBarometerVisibility
6:00 AM
Nov 27
48 °FLight fog.3 mph94%29.68 "Hg2 mi
5:30 AM48 °FFog.3 mph100%29.71 "Hg2 mi
5:00 AM48 °FLow clouds.3 mph100%29.71 "Hg2 mi
4:30 AM48 °FFog.No wind94%29.74 "Hg0 mi
3:30 AM50 °FDense fog.No wind94%29.74 "Hg1 mi
3:00 AM50 °FPartly cloudy.3 mph100%29.77 "Hg1 mi
2:30 AM50 °FLight fog.No wind100%29.77 "Hg1 mi
2:00 AM50 °FFog.2 mph100%29.77 "Hg2 mi
1:30 AM50 °FFog.1 mph100%29.77 "Hg0 mi
1:00 AM52 °FLight fog.2 mph94%29.80 "Hg2 mi
12:30 AM52 °FLight fog.3 mph94%29.80 "Hg3 mi
12:00 AM52 °FFog.3 mph100%29.80 "Hg2 mi
11:30 PM
Nov 26
52 °FFog.5 mph100%29.83 "Hg2 mi
11:00 PM52 °FLight fog.2 mph100%29.83 "Hg1 mi
10:30 PM54 °FFog.No wind94%29.83 "Hg0 mi
10:00 PM54 °FFog.No wind94%29.83 "Hg0 mi
9:30 PM54 °FFog.1 mph94%29.83 "Hg0 mi
9:00 PM54 °FFog.2 mph94%29.83 "Hg0 mi
8:30 PM54 °FFog.No wind94%29.83 "Hg1 mi
8:00 PM54 °FFog.No wind100%29.83 "Hg2 mi
7:30 PM55 °FLight fog.No wind94%29.86 "Hg1 mi
7:00 PM55 °FFog.No wind94%29.86 "Hg3 mi
6:30 PM55 °FClear.No wind94%29.86 "Hg6 mi
6:00 PM55 °FClear.1 mph88%29.86 "HgN/A
5:30 PM55 °FLight rain. Clear.2 mph94%29.86 "HgN/A
5:00 PM55 °FLight rain. Cloudy.2 mph94%29.86 "HgN/A
4:30 PM57 °FLight rain. Overcast.2 mph88%29.86 "HgN/A
4:00 PM57 °FLight rain. More clouds than sun.2 mph88%29.86 "HgN/A
3:30 PM57 °FLight rain. Clear.No wind82%29.86 "HgN/A
3:00 PM57 °FLight rain. Clear.2 mph88%29.86 "HgN/A
2:30 PM57 °FClear.3 mph88%29.86 "HgN/A
2:00 PM57 °FClear.No wind82%29.89 "HgN/A
1:30 PM57 °FClear.No wind88%29.89 "HgN/A
1:00 PM55 °FClear.No wind94%29.89 "HgN/A
12:30 PM55 °FClear.No wind94%29.89 "HgN/A
12:00 PM54 °FClear.1 mph100%29.92 "HgN/A
11:30 AM54 °FClear.No wind100%29.92 "HgN/A
11:00 AM54 °FClear.No wind94%29.92 "HgN/A
10:30 AM52 °FClear.2 mph100%29.92 "HgN/A
10:00 AM50 °FClear.No wind100%29.95 "HgN/A
9:30 AM50 °FClear.No wind100%29.95 "HgN/A
9:00 AM48 °FClear.No wind100%29.95 "HgN/A
8:30 AM48 °FClear.No wind100%29.95 "HgN/A
8:00 AM46 °FLight fog.No wind100%29.95 "Hg1 mi
7:30 AM46 °FFog.2 mph100%29.92 "Hg1 mi
7:00 AM46 °FFog.No wind100%29.95 "Hg0 mi
Weather by CustomWeather, © 2014

See weather overviewHow to use our weather pages